Aeroporto :
LOGIN :

Iscrizione | Disclaimer

   EN    FR    IT 

 










Sommario :    VFR   VFR Marginale   IFR   IFR Intensivo   IFR Molto Intensivo
Visibilità : 
Base nubi : 
>= 8 km
>= 3000ft
5 / 8 km
1000 / 3000 ft
1500m / 5 km
500 / 1000 ft
800 / 1500m
200 / 500 ft
< 800m
< 200 ft
Simboli :   Temporali  Nebbia  Neve Forte  Precipitazioni Forti  Vento > 20 kt
SIGMETs :   Varie  Temporali  Ghiacco  Turbolenza  Onda orograficha  Ceneri Vulcaniche






- Altitudine del aeroporto : 1299 ft


EDTY - Adolf Würth

ULTIMO METAR :
  • 240850Z 23006KT 190V260 CAVOK 17/11 Q1020

METARs OBSOLETI :
  • 240820Z 24007KT 200V270 9999 FEW036 16/11 Q1020
  • 240750Z 24006KT 9999 FEW035 15/11 Q1020
  • 240720Z 22005KT 180V260 9999 FEW036 14/11 Q1019
  • 240650Z 22006KT 9999 BKN034 13/10 Q1019
  • 240620Z 21005KT 9999 SCT023 OVC033 12/10 Q1019

TAF TAF EDTY
Valido dal 24 a 09 ore il 24 a 18 ore UTC


240800Z 2409/2418 24006KT 9999 FEW035



MetMap, La meteo Aeronautica in un colpo d'occhio ! - Copyright ORBIFLY Dicembre 2007 - Disclaimer

ORBIFLY MET'MAP TEAM :

Programmazione e sviluppo : Alexandra Zaïnal
Concezione : Baudouin d'Aumeries
Aiuto per la programmazione : Marc-Olivier Méhu
Supporto tecnico e logistico : Manuel Goepfert
Aiuto per la traduzione : Arnaldo La Scala

Contatto : metmap@orbifly.com




FONTI E CREDITI :

   NOAA